Regional Weather Roundup
Issued by NWS

Home | Current Version | Previous Version | Text Only | Print | Product List | Glossary On
Versions: 1 2 3 4 5 6 7 8 9 10 11 12 13 14 15 16 17 18 19 20 21 22 23 24 25 26 27 28 29 30 31 32 33 34 35 36 37 38 39 40 41 42 43 44 45 46 47 48 49 50
000
ASUS45 KABQ 252110
RWRNM
WEATHER ROUNDUP FOR NEW MEXICO
NATIONAL WEATHER SERVICE ALBUQUERQUE NM
200 PM MST TUE NOV 25 2014

NOTE: "FAIR" MEANS FEW OR NO CLOUDS BELOW 12,000 FEET AGL WITH NO
       SIGNIFICANT WEATHER OR OBSTRUCTIONS TO VISION.

      THIS PRODUCT IS RELEASED AS TWO VERSIONS.  ONE VERSION NEAR
      THE TOP OF THE HOUR CONTAINING PRELIMINARY DATA FROM ALBUQUERQUE
      AND OTHER STATIONS.  A FINAL VERSION WITH ADDITIONAL DATA IS
      ISSUED ABOUT 10 MINUTES AFTER THE HOUR.

NMZ501-503-504-510>518-252200-
NORTHWEST PLATEAU/NORTHCENTRAL MOUNTAINS

CITY           SKY/WX    TMP DP  RH WIND       PRES   REMARKS
FARMINGTON     SUNNY     45   1  16 W23       30.30F
LOS ALAMOS     SUNNY     34   7  32 E6        30.26F WCI  29
SANTA FE       SUNNY     43   8  23 N13       30.24F
TAOS           SUNNY     34  12  40 SW10      30.23F WCI  26
ANGEL FIRE     FAIR      27   9  47 W22G33    30.16S WCI  12

$$
NMZ402-403-502-505>509-252200-
WESTCENTRAL MOUNTAINS/SOUTHWEST MOUNTAINS

CITY           SKY/WX    TMP DP  RH WIND       PRES   REMARKS
GALLUP         SUNNY     49   1  14 W13       30.34F
GRANTS         SUNNY     52   1  12 NW22      30.31S
SILVER CITY    SUNNY     50  -2  11 S10       30.34F

$$
NMZ407-409-411-412-252200-
SOUTHERN DESERTS

CITY           SKY/WX    TMP DP  RH WIND       PRES   REMARKS
LORDSBURG      FAIR      52   1  12 CALM      30.35F
DEMING         SUNNY     53   1  12 SW9       30.33F
LAS CRUCES     SUNNY     53   3  13 SW12      30.34F
HOLLOMAN AFB   MOSUNNY   52   6  15 VRB1      30.32F
ALAMOGORDO     SUNNY     50   5  16 CALM      30.33F
T OR C         SUNNY     51  -3  10 S12       30.29F

$$
NMZ519>523-252200-
CENTRAL VALLEYS/CENTRAL HIGHLANDS

CITY           SKY/WX    TMP DP  RH WIND       PRES   REMARKS
ALBUQUERQUE    MOSUNNY   47   3  16 NW9       30.30F
DOUBLE EAGLE   MOSUNNY   43   3  19 W3        30.31S
MORIARTY ARPT  FAIR      44   4  19 W16G26    30.24F
CLINES CORNERS SUNNY     40   3  21 W44G54    30.13F WCI  26
BELEN          FAIR      47   5  18 CALM      30.30S
SOCORRO        FAIR      49   5  16 SE8       30.30F

$$
NMZ524>526-539-540-252200-
SOUTHCENTRAL MOUNTAINS

CITY           SKY/WX    TMP DP  RH WIND       PRES   REMARKS
RUIDOSO        SUNNY     45 -13   8 NW25G40   30.22F

$$
NMZ527>531-252200-
NORTHEAST HIGHLANDS/NORTHEAST PLAINS

CITY           SKY/WX    TMP DP  RH WIND       PRES   REMARKS
LAS VEGAS      SUNNY     46   6  19 CALM      30.07S
RATON          MOSUNNY   43  13  29 VRB3      30.00F
CLAYTON        PTSUNNY   53   7  15 W15       29.96F

$$
NMZ532>537-252200-
EASTCENTRAL PLAINS

CITY           SKY/WX    TMP DP  RH WIND       PRES   REMARKS
TUCUMCARI      MOSUNNY   54  10  17 W26G33    30.03F
CANNON AFB     SUNNY     54   3  13 W28G38    30.07F
CLOVIS AIRPORT MOSUNNY   54   7  15 W28G36    30.06F

$$
NMZ028-029-538-252200-
SOUTHEAST PLAINS

CITY           SKY/WX    TMP DP  RH WIND       PRES   REMARKS
ROSWELL        SUNNY     58   9  14 SW9       30.17F
CARLSBAD       SUNNY     59   9  13 SW15      30.20F
HOBBS          SUNNY     54  10  17 SW21      30.21F


$$


USA.gov is the U.S. government's official web portal to all federal, state and local government web resources and services.